Home > Weather > Gary > Past weeks

Flag for U.S.A. Weather for the Past 2 Weeks in Gary, Indiana, U.S.A.

Now
30 °F

Clear.


Feels Like: 23 °F
Forecast: 35 / 44 °F
Wind: 7 mph from South

Location: Lansing Municipal Airport

Current Time: Feb 6, 2016 at 8:45:25 PM

Latest Report: Feb 6, 2016 at 7:55 PM


Visibility: 10 mi

Pressure: 30.14 "Hg

Humidity: 89%

Dew point: 27 °F

Location of GaryLocation

Historic Weather in Gary — Graph

°F

Gary Temperature Yesterday

Maximum temperature yesterday: 34 °F (at 12:15 PM)
Minimum temperature yesterday: 24 °F (at 11:55 PM)
Average temperature yesterday: 29 °F

High & Low Weather Summary for the Past Weeks

 TemperatureHumidityPressure
High52 °F (Jan 31, 1:35 PM)100% (Feb 2, 11:15 PM)30.37 "Hg (Feb 2, 11:15 PM)
Low16 °F (Jan 23, 1:55 AM)44% (Jan 29, 1:55 PM)29.46 "Hg (Feb 2, 10:35 PM)
Average32 °F78%29.96 "Hg
* Reported Jan 22 6:15 PM — Feb 6 6:55 PM, Gary, Weather by CustomWeather, © 2016

Note: Actual official high and low records may vary slightly from our data, if they occured in-between our weather recording intervals... More about our weather records

Advertising

Gary Weather History for the Previous 24 Hours

 ConditionsComfort  
Time TempWeatherWind HumidityBarometerVisibility
6:55 PM
Sat, Feb 6
31 °FClear.7 mph84%30.16 "Hg10 mi
6:15 PM34 °FClear.5 mph81%30.17 "Hg10 mi
5:55 PM33 °FClear.5 mph82%30.17 "Hg10 mi
5:15 PM36 °FClear.3 mph74%30.16 "Hg10 mi
4:55 PM38 °FClear.7 mph69%30.17 "Hg10 mi
4:15 PM40 °FClear.10 mph65%30.18 "Hg10 mi
3:15 PM40 °FScattered clouds.14 mph65%30.19 "Hg10 mi
2:55 PM40 °FScattered clouds.9 mph66%30.19 "Hg10 mi
2:35 PM38 °FSunny.15 mph67%30.19 "Hg10 mi
2:15 PM39 °FPartly sunny.13 mph66%30.19 "Hg10 mi
1:55 PM40 °FPartly sunny.13 mph64%30.19 "Hg10 mi
1:35 PM39 °FPartly sunny.13 mph65%30.19 "Hg10 mi
1:15 PM38 °FPartly sunny.13 mph65%30.20 "Hg10 mi
12:55 PM39 °FPartly sunny.16 mph65%30.21 "Hg10 mi
12:35 PM39 °FPartly sunny.16 mph64%30.22 "Hg10 mi
12:15 PM38 °FScattered clouds.12 mph64%30.23 "Hg10 mi
11:55 AM37 °FScattered clouds.13 mph66%30.24 "Hg10 mi
11:35 AM37 °FSunny.9 mph64%30.25 "Hg10 mi
11:15 AM36 °FSunny.12 mph68%30.26 "Hg10 mi
10:55 AM35 °FSunny.10 mph69%30.27 "Hg10 mi
10:35 AM34 °FSunny.13 mph70%30.27 "Hg10 mi
10:15 AM33 °FSunny.9 mph72%30.28 "Hg10 mi
9:55 AM32 °FSunny.10 mph75%30.28 "Hg10 mi
9:35 AM31 °FSunny.9 mph76%30.29 "Hg10 mi
9:15 AM30 °FSunny.10 mph80%30.29 "Hg7 mi
8:55 AM29 °FSunny.8 mph82%30.29 "Hg7 mi
8:35 AM28 °FSunny.8 mph85%30.29 "Hg7 mi
8:15 AM27 °FIce fog.7 mph87%30.30 "Hg5 mi
7:55 AM26 °FIce fog.8 mph89%30.30 "Hg5 mi
7:35 AM25 °FIce fog.8 mph89%30.30 "Hg5 mi
7:15 AM24 °FIce fog.6 mph90%30.30 "Hg5 mi
6:55 AM25 °FOvercast.7 mph89%30.30 "Hg7 mi
6:35 AM25 °FOvercast.7 mph89%30.29 "Hg7 mi
6:15 AM25 °FOvercast.5 mph89%30.30 "Hg7 mi
5:55 AM24 °FIce fog.3 mph91%30.30 "Hg5 mi
5:35 AM25 °FOvercast.5 mph91%30.30 "Hg7 mi
5:15 AM24 °FOvercast.3 mph89%30.29 "Hg7 mi
4:55 AM24 °FOvercast.5 mph90%30.29 "Hg7 mi
4:35 AM24 °FPassing clouds.No wind89%30.29 "Hg7 mi
4:15 AM24 °FPassing clouds.5 mph89%30.29 "Hg7 mi
3:55 AM25 °FPassing clouds.5 mph89%30.29 "Hg7 mi
3:35 AM26 °FOvercast.7 mph88%30.29 "Hg7 mi
3:15 AM26 °FOvercast.5 mph89%30.29 "Hg7 mi
2:55 AM25 °FIce fog.5 mph91%30.29 "Hg5 mi
2:35 AM26 °FOvercast.5 mph89%30.30 "Hg7 mi
2:15 AM24 °FIce fog.5 mph93%30.31 "Hg5 mi
1:55 AM24 °FIce fog.3 mph93%30.31 "Hg5 mi
1:35 AM24 °FIce fog.3 mph93%30.32 "Hg5 mi
1:15 AM23 °FOvercast.No wind93%30.32 "Hg7 mi
12:55 AM24 °FPassing clouds.3 mph90%30.32 "Hg7 mi
12:15 AM24 °FClear.3 mph89%30.32 "Hg7 mi
11:55 PM
Fri, Feb 5
24 °FPassing clouds.5 mph89%30.32 "Hg7 mi
11:35 PM25 °FPassing clouds.3 mph88%30.33 "Hg10 mi
11:15 PM25 °FClear.5 mph89%30.33 "Hg10 mi
10:55 PM25 °FClear.6 mph88%30.33 "Hg7 mi
10:15 PM26 °FClear.3 mph87%30.33 "Hg10 mi
9:55 PM26 °FPassing clouds.3 mph88%30.33 "Hg10 mi
9:35 PM26 °FPassing clouds.5 mph88%30.34 "Hg10 mi
9:15 PM26 °FPassing clouds.5 mph86%30.34 "Hg10 mi
8:55 PM27 °FClear.5 mph84%30.35 "Hg10 mi
8:15 PM28 °FPassing clouds.7 mph81%30.37 "Hg10 mi
Weather by CustomWeather, © 2016

See weather overviewHow to use our weather pages